Location: ????
(30.1475°N, 31.1342°E)
Time: 11:01:59
(UTC+00:00)

Cosmos 1515 Rocket - Pass Details

Date: 27 September 2022
Orbit: 604 x 630 km, 82.5° (Epoch: 27 November)

Event Time Altitude Azimuth Distance (km) Brightness Sun altitude
Rises 02:52:11 0° 199° (SSW) 2,870 6.7 -12.5°
Reaches altitude 10° 02:54:28 10° 206° (SSW) 1,973 5.8 -12.1°
Maximum altitude 02:58:39 44° 278° (W) 858 3.8 -11.2°
Drops below altitude 10° 03:02:53 10° 351° (N) 2,000 6.1 -10.2°
Sets 03:05:13 0° 358° (N) 2,913 7.0 -9.7°
